DMSP 5D-2 F13 DEB, 40527

Orbit data source: Space-Track

DMSP 5D-2 F13 DEB, 40527 is space debris in SSO originally from a launch on Fri, 24 Mar 1995 UTC launched from the Air Force Western Test Range (AFWTR). Debris objects in space refer to the collection of defunct objects orbiting the Earth. Examples of debris include non-operational satellites, rocket bodies, and fragments generated from explosions, collisions, or faulty payload assembly.

Loading next visibility...
Identifier
40527, 1995-015DP
Orbit
SSO
Country
Flag of USUS
Related business
Manufacturer
Unknown
Mission
Spacecraft
Bus & Motor
Unknown
Mass
Unknown
Launch date (UTC)
1995-03-24 (31 years ago)
Launch vehicle
Unknown
Launch site
Air Force Western Test Range (AFWTR)
Object type
Payload
Rocket body
Debris
Shape & HBR
Unknown shape, 0.1 m
Radar Cross Section
Small (<0.1 m²)

Expand to show TLE details & history
Last TLE update: 23 hours ago

TLE from 23 hours ago
0 DMSP 5D-2 F13 DEB
1 40527U 95015DP  25296.93054901  .00006152  00000-0  26618-2 0  9992
2 40527  98.9374 283.8517 0041527 349.7882  10.2448 14.24234143544970
Epoch: 2025-10-23T22:19Z
TLE epoch observation values (Epoch: 2025-10-23T22:19:59.434Z)
Latitude
-0.00005°
Longitude
-83.72867°
Altitude
784.601 km
Speed
7.477 km/s
True Right ascension
18h 55m 24s
True Declination
0° 00' 00"
Sunlit
Object was in daylight at epoch
Visualization orbit readout
Latitude
Unknown
Longitude
Unknown
Altitude
Unknown
Speed
Unknown
Apparent Right ascension
Unknown
Apparent Declination
Unknown
Sunlit
N/A
Visualization observer readout
Local Sidereal Time
16:55:39
Azimuth
Unknown
Elevation
Unknown
Doppler factor
Unknown
Orbital elements
Apogee altitude
838.076 km
Perigee altitude
778.39 km
Semi-major axis
7,186.37 km
Eccentricity
0.00415
Inclination
98.9374°
RAAN
283.8517°
Arg. of periapsis
349.7882°
True anomaly
10.32987°
Mean anomaly
10.2448°
Eccentric anomaly
10.28729°
Mean motion
3.5627 °/min
Orbital period
101.05 mins
BSTAR
0.0026618
Loading maneuver chart data...
Computing Atmospheric mass density...

Documentation

Showing up to 5 results
|